Location: Dixon
(37.9953°N, 92.0959°W)
Time: 23:21:13
(UTC+00:00)

ARIANE 6 FM1 Upper Stage - Pass Details

Date: 15 December 2025
Orbit: 522 x 610 km, 62.0° (Epoch: 15 January)

Event Time Altitude Azimuth Distance (km) Brightness Sun altitude
Rises 11:16:42 0° 189° (S) 2,709 6.2 -23.0°
Reaches altitude 10° 11:19:08 10° 177° (S) 1,804 5.4 -22.5°
Maximum altitude 11:22:38 28° 118° (ESE) 1,015 4.6 -21.9°
Drops below altitude 10° 11:26:05 10° 57° (ENE) 1,779 5.8 -21.2°
Sets 11:28:28 0° 46° (NE) 2,664 6.6 -20.7°
